Location: Recife
(8.0585°S, 34.8848°W)
Time: 12:18:07
(UTC-03:00)

Injun/Solrad 3 - Pass Details

Date: 18 April 2026
Orbit: 868 x 988 km, 66.8° (Epoch: 12 May)

Event Time Altitude Azimuth Distance (km) Brightness Sun altitude
Rises 17:55:16 0° 170° (S) 3,461 10.7 -10.4°
Reaches altitude 10° 17:58:53 10° 148° (SSE) 2,515 9.8 -11.3°
Maximum altitude 18:02:07 15° 113° (ESE) 2,163 9.2 -12.1°
Enters shadow 18:02:13 15° 112° (ESE) 2,163 9.2 -12.1°
Drops below altitude 10° 18:05:21 10° 79° (E) 2,514 - -12.9°
Sets 18:08:57 0° 57° (ENE) 3,459 - -13.8°
